This is the latest recevied weather packets stored in our database for station/object KY0TEQ-13. If no packets are shown the sender has not sent any weather packets the latest 10 day(s).
| Time | Temp. | Humidity | Pressure | Rain* | Wind** | Luminosity | Snow |
|---|---|---|---|---|---|---|---|
| 1777410247 | 14.44° C | 16% | 1303.5 hPa | 0 mm | - | 609 W/m² | - |
| 1777408113 | 13.89° C | 21% | 1303.8 hPa | 0 mm | - | 642 W/m² | - |
| 1777405985 | 13.89° C | 22% | 1303.8 hPa | 0 mm | - | 740 W/m² | - |
| 1777405075 | 13.89° C | 22% | 1304 hPa | 0 mm | - | 758 W/m² | - |
| 1777404769 | 12.78° C | 22% | 1303.7 hPa | 0 mm | - | 763 W/m² | - |
| 1777403858 | 12.78° C | 23% | 1304 hPa | 0 mm | - | 702 W/m² | - |
| 1777403553 | 12.78° C | 23% | 1303.9 hPa | 0 mm | - | 780 W/m² | - |
| 1777401132 | 12.22° C | 24% | 1304.1 hPa | 0 mm | - | 769 W/m² | - |
| 1777400221 | 11.67° C | 23% | 1304.1 hPa | 0 mm | - | 752 W/m² | - |
| 1777397796 | 12.22° C | 25% | 1304.1 hPa | 0 mm | - | 724 W/m² | - |
| 1777397492 | 11.67° C | 26% | 1304.1 hPa | 0 mm | - | 717 W/m² | - |
| 1777397188 | 11.67° C | 25% | 1304.3 hPa | 0 mm | - | 710 W/m² | - |
| 1777396279 | 11.11° C | 28% | 1304.5 hPa | 0 mm | - | 690 W/m² | - |
| 1777395675 | 11.67° C | 25% | 1304.6 hPa | 0 mm | - | 678 W/m² | - |
| 1777395372 | 10.56° C | 29% | 1304.5 hPa | 0 mm | - | 675 W/m² | - |
| 1777394766 | 10.56° C | 28% | 1304.6 hPa | 0 mm | - | 124 W/m² | - |
| 1777394158 | 10.56° C | 29% | 1304.6 hPa | 0 mm | - | 619 W/m² | - |
| 1777393553 | 9.44° C | 32% | 1304.5 hPa | 0 mm | - | 593 W/m² | - |
| 1777393249 | 9.44° C | 31% | 1304.6 hPa | 0 mm | - | 583 W/m² | - |
| 1777392338 | 9.44° C | 33% | 1304.5 hPa | 0 mm | - | 544 W/m² | - |
| 1777391733 | 8.89° C | 34% | 1304.6 hPa | 0 mm | - | 517 W/m² | - |
| 1777391430 | 8.33° C | 34% | 1304.6 hPa | 0 mm | - | 503 W/m² | - |
| 1777390520 | 7.78° C | 35% | 1304.6 hPa | 0 mm | - | 455 W/m² | - |
| 1777389912 | 7.22° C | 36% | 1304.5 hPa | 0 mm | - | 424 W/m² | - |
| 1777388096 | 6.67° C | 37% | 1304.3 hPa | 0 mm | - | 314 W/m² | - |
* Rain latest hour (hover to see other rain measurements)
** Current wind speed in m/s (hover to see current wind gust speed)